Regional Weather Roundup
Issued by NWS Little Rock, AR

Home | Current Version | Previous Version | Graphics & Text | Print | Product List | Glossary On
Versions: 1 2 3 4 5 6 7 8 9 10 11 12 13 14 15 16 17 18 19 20 21 22 23 24 25 26 27 28 29 30 31 32 33 34 35 36 37 38 39 40 41 42 43 44 45 46 47 48 49 50
000
ASUS44 KLZK 261605
RWRLZK

WEATHER ROUNDUP FOR ARKANSAS
NATIONAL WEATHER SERVICE LITTLE ROCK AR
1100 AM CDT TUE MAY 26 2015

NOTE: "FAIR" INDICATES FEW OR NO CLOUDS BELOW 12,000 FEET WITH NO
SIGNIFICANT WEATHER AND/OR OBSTRUCTIONS TO VISIBILITY.

ARZ001-003-010-029-261700-
NORTHWEST ARKANSAS

CITY           SKY/WX    TMP DP  RH WIND       PRES   REMARKS
FAYETTEVILLE   CLOUDY    67  60  78 SW10      30.01R
FORT SMITH     CLOUDY    71  59  65 W9        30.01R
HARRISON       CLOUDY    68  59  73 W10       30.01R
BENTONVILLE    CLOUDY    66  57  72 SW9       30.00S
ROGERS         CLOUDY    67  60  78 SW13      30.01R
SILOAM SPGS    CLOUDY    68  57  68 S9        30.01S
HIGHFILL       CLOUDY    66  60  81 W9        30.00R
SPRINGDALE     CLOUDY    66  59  77 SW13      30.02R
$$

ARZ004-005-016-261700-
NORTH CENTRAL ARKANSAS

CITY           SKY/WX    TMP DP  RH WIND       PRES   REMARKS
BATESVILLE     CLOUDY    70  61  73 SW7       30.02R
FLIPPIN        PTSUNNY   70  61  73 SW7       29.98S
MTN HOME       CLOUDY    67  61  81 SW6       29.99S
$$

ARZ040-041-261700-
WEST CENTRAL ARKANSAS

CITY           SKY/WX    TMP DP  RH WIND       PRES   REMARKS
MENA           CLOUDY    72  63  73 W8        30.05R
MOUNT IDA      PTSUNNY   70  61  73 SW8       30.02R
$$

ARZ009-017-025-026-028-261700-
NORTHEAST ARKANSAS

CITY           SKY/WX    TMP DP  RH WIND       PRES   REMARKS
CORNING          N/A     72  64  78 SW17      30.01S
JONESBORO      PTSUNNY   71  63  75 SW15G24   30.03R
NEWPORT        CLOUDY    72  62  70 S16       30.04R
WALNUT RIDGE   CLOUDY    72  61  68 SW16      30.02R
BLYTHEVILLE    PTSUNNY   73  65  75 SW15G23   30.05R
$$

ARZ022-023-033-042-044-261700-
CENTRAL ARKANSAS

CITY           SKY/WX    TMP DP  RH WIND       PRES   REMARKS
LITTLE ROCK    CLOUDY    69  61  75 SW9       30.05R
N LITTLE ROCK  CLOUDY    67  64  89 SW10      30.05R
JACKSONVILLE   CLOUDY    69  62  76 SW8       30.04R
SEARCY         CLOUDY    68  63  84 S8        30.05R
HOT SPRINGS    CLOUDY    68  63  84 SW8       30.05R
RUSSELLVILLE   CLOUDY    71  63  75 SW3       30.02R
CLINTON        CLOUDY    72  63  73 SW7       30.02S
$$

ARZ036-261700-
EAST ARKANSAS

CITY           SKY/WX    TMP DP  RH WIND       PRES   REMARKS
WEST MEMPHIS   PTSUNNY   72  65  78 SW9       30.05S
$$

ARZ050-053-066-070-073-261700-
SOUTHWEST ARKANSAS

CITY           SKY/WX    TMP DP  RH WIND       PRES   REMARKS
ARKADELPHIA    PTSUNNY   70  67  90 SW8       30.05S
CAMDEN         CLOUDY    70  63  78 E7        30.06R
TEXARKANA      CLOUDY    67  64  90 W5        30.06R
EL DORADO      CLOUDY    74  65  73 SW6       30.05S
$$

ARZ056-057-069-261700-
SOUTHEAST ARKANSAS

CITY           SKY/WX    TMP DP  RH WIND       PRES   REMARKS
PINE BLUFF     PTSUNNY   72  62  71 SW13      30.06R
STUTTGART      PTSUNNY   73  63  68 SW14      30.06S
MONTICELLO     MOSUNNY   74  64  71 SW10      30.05F

$$





USA.gov is the U.S. government's official web portal to all federal, state and local government web resources and services.